Location: Unspecified
(57.6978°N, 0.0000°E)
Time: 16:19:29
(UTC+00:00)

Transit 2A - All Passes

Search period start: 04 April 2026 00:00
Search period end: 14 April 2026 00:00
Orbit: 591 x 953 km, 66.7° (Epoch: 29 March)

Date Brightness Start Highest point End Pass type
(mag) Time Alt. Az. Time Alt. Az. Time Alt. Az.
4 Apr - 01:26:30 10° S 01:32:02 33° ESE 01:37:24 10° NE visible
4 Apr - 03:08:27 10° SW 03:14:47 83° NW 03:20:47 10° NE visible
4 Apr - 04:52:43 10° W 04:58:35 41° NNW 05:04:04 10° NE daylight
4 Apr - 06:37:25 10° WNW 06:42:56 35° N 06:48:03 10° ENE daylight
4 Apr - 08:21:16 10° NW 08:27:05 56° NNE 08:32:19 10° ESE daylight
4 Apr - 10:04:41 10° NW 10:10:12 51° SW 10:15:09 10° SSE daylight
4 Apr - 11:49:50 10° W 11:51:53 12° WSW 11:53:52 10° SW daylight
5 Apr - 00:50:50 10° SSE 00:55:51 26° ESE 01:00:45 10° ENE visible
5 Apr - 02:32:02 10° SW 02:38:21 81° SE 02:44:21 10° NE visible
5 Apr - 04:15:58 10° W 04:21:56 46° NNW 04:27:33 10° NE visible
5 Apr - 06:00:43 10° WNW 06:06:14 34° N 06:11:21 10° ENE daylight
5 Apr - 07:44:46 10° NW 07:50:30 48° NNE 07:55:41 10° E daylight
5 Apr - 09:28:11 10° NW 09:33:53 67° SW 09:38:59 10° SSE daylight
5 Apr - 11:12:26 10° WNW 11:15:53 17° WSW 11:19:09 10° SW daylight
6 Apr - 00:15:27 10° SSE 00:19:44 20° ESE 00:23:56 10° ENE visible
6 Apr - 01:55:44 10° SSW 02:01:58 65° SE 02:07:54 10° NE visible
6 Apr - 03:39:13 10° WSW 03:45:21 53° NNW 03:51:05 10° NE visible
6 Apr - 05:23:59 10° WNW 05:29:32 35° N 05:34:42 10° ENE daylight
6 Apr - 07:08:14 10° NW 07:13:53 42° NNE 07:19:00 10° E daylight
6 Apr - 08:51:43 10° NW 08:57:30 85° SW 09:02:41 10° SE daylight
6 Apr - 10:35:31 10° WNW 10:39:49 23° WSW 10:43:47 10° SSW daylight
6 Apr - 23:40:31 10° SE 23:43:40 14° ESE 23:46:46 10° ENE visible
7 Apr - 01:19:34 10° SSW 01:25:37 51° SE 01:31:26 10° NE visible
7 Apr - 03:02:34 10° WSW 03:08:47 62° NW 03:14:37 10° NE visible
7 Apr - 04:47:13 10° WNW 04:52:50 36° N 04:58:05 10° ENE daylight
7 Apr - 06:31:40 10° NW 06:37:13 38° NNE 06:42:18 10° E daylight
7 Apr - 08:15:14 10° NW 08:21:04 78° NE 08:26:16 10° SE daylight
7 Apr - 09:58:49 10° NW 10:03:41 31° WSW 10:08:07 10° S daylight
8 Apr - 00:43:33 10° S 00:49:21 40° ESE 00:54:54 10° NE visible
8 Apr - 02:25:59 10° SW 02:32:15 74° NW 02:38:11 10° NE visible
8 Apr - 04:10:25 10° W 04:16:09 39° NNW 04:21:30 10° NE visible
8 Apr - 05:55:02 10° WNW 06:00:32 36° N 06:05:35 10° ENE daylight
8 Apr - 07:38:46 10° NW 07:44:34 64° NE 07:49:46 10° ESE daylight
8 Apr - 09:22:13 10° NW 09:27:29 42° WSW 09:32:14 10° S daylight
9 Apr - 00:07:44 10° S 00:13:07 31° ESE 00:18:18 10° ENE visible
9 Apr - 01:49:28 10° SW 01:55:47 88° NW 02:01:45 10° NE visible
9 Apr - 03:33:38 10° W 03:39:30 42° NNW 03:44:58 10° NE visible
9 Apr - 05:18:22 10° WNW 05:23:50 34° N 05:28:53 10° ENE daylight
9 Apr - 07:02:17 10° NW 07:08:01 53° NNE 07:13:11 10° ESE daylight
9 Apr - 08:45:41 10° NW 08:51:12 55° SW 08:56:10 10° SSE daylight
9 Apr - 10:30:29 10° WNW 10:33:00 13° WSW 10:35:24 10° SW daylight
9 Apr - 23:32:09 10° SSE 23:36:57 23° ESE 23:41:36 10° ENE visible
10 Apr - 01:13:05 10° SW 01:19:21 76° SE 01:25:18 10° NE visible
10 Apr - 02:56:53 10° W 03:02:52 48° NNW 03:08:28 10° NE visible
10 Apr - 04:41:39 10° WNW 04:47:08 34° N 04:52:12 10° ENE daylight
10 Apr - 06:25:46 10° NW 06:31:24 46° NNE 06:36:31 10° E daylight
10 Apr - 08:09:11 10° NW 08:14:52 72° SW 08:19:57 10° SE daylight
10 Apr - 09:53:16 10° WNW 09:56:58 19° WSW 10:00:25 10° SSW daylight
10 Apr - 22:56:53 10° SE 23:00:50 18° ESE 23:04:41 10° ENE visible
11 Apr - 00:36:49 10° SSW 00:42:58 60° SE 00:48:50 10° NE visible
11 Apr - 02:20:10 10° WSW 02:26:16 55° NNW 02:32:00 10° NE visible
11 Apr - 04:04:53 10° WNW 04:10:25 35° N 04:15:33 10° ENE visible
11 Apr - 05:49:12 10° NW 05:54:46 41° NNE 05:59:49 10° E daylight
11 Apr - 07:32:42 10° NW 07:38:28 89° NE 07:43:35 10° SE daylight
11 Apr - 09:16:26 10° WNW 09:20:52 25° WSW 09:24:57 10° SSW daylight
11 Apr - 22:22:12 10° SE 22:24:47 13° ESE 22:27:19 10° ENE visible
12 Apr - 00:00:41 10° SSW 00:06:39 47° ESE 00:12:20 10° NE visible
12 Apr - 01:43:30 10° WSW 01:49:43 65° NW 01:55:33 10° NE visible
12 Apr - 03:28:06 10° WNW 03:33:44 36° NNW 03:38:57 10° NE visible
12 Apr - 05:12:37 10° NW 05:18:06 37° NNE 05:23:06 10° E daylight
12 Apr - 06:56:14 10° NW 07:01:59 72° NE 07:07:08 10° ESE daylight
12 Apr - 08:39:45 10° NW 08:44:42 34° WSW 08:49:12 10° S daylight
12 Apr - 23:24:44 10° S 23:30:22 36° ESE 23:35:47 10° NE visible
13 Apr - 01:06:56 10° SW 01:13:13 78° NW 01:19:06 10° NE visible
13 Apr - 02:51:19 10° W 02:57:03 39° NNW 03:02:23 10° NE visible
13 Apr - 04:35:58 10° WNW 04:41:24 35° N 04:46:23 10° ENE daylight
13 Apr - 06:19:45 10° NW 06:25:28 59° NNE 06:30:36 10° ESE daylight
13 Apr - 08:03:10 10° NW 08:08:28 45° WSW 08:13:14 10° SSE daylight
13 Apr - 09:49:33 10° W 09:50:03 10° W 09:50:32 10° WSW daylight
13 Apr - 22:48:58 10° S 22:54:09 28° ESE 22:59:09 10° ENE visible
